2016-061B

Last updated on Tue Oct 18 2016 17:17:14 GMT+0000 (Coordinated Universal Time)

1 41813U 16061B 16292.52629770 -.00002677 84701-5 00000+0 0 9996 2 41813 42.7886 359.3733 0128080 141.5214 219.4868 15.99442769 211
UTC large
Height (km)
Speed (km/s)
/
Latitude / Longitude
Inclination (degrees)
Orbital Period (minutes)
Azimuth
Elevation
Range (km)
Doppler Factor

Next 0 passes for location: London (51.5072 / 0.1276)

Sorry there are no passes over London.